Main page
METAR-TAF:

METAR-TAF

Airports :

Independence Municipal Airport

Independence, Iowa, United States

latitude: 42-27N, longitude: 091-56W, elevation: 977 ft

Current weather observation

The report was made 26 minutes ago, at 19:15 UTC
Wind 8 mph from the South/Southwest
Temperature 86°F
Humidity 66%
Pressure 29.88 in. Hg
Visibility: 10 miles
Scattered clouds at a height of 2800 ft

METAR: KIIB 141915Z AUTO 20007KT 10SM SCT028 30/23 A2988 RMK AO2 T02960231

Time: 14:41 (19:41 UTC)


TAF: missing

Weather observations and forecasts of more than 4000 airports (METAR and TAF reports).

The available stations are represented by yellow and red dots on the map.

Hover mouse over dot to see the name of the station.

Then click to see weather observations and forecasts.

To change the map : click on the green buttons with a black cross to zoom in, on the green button with a dash to zoom out, or on the green arrows for adjacent maps.


METAR-TAF: